• în România
  • Lista ţărilor
  • Pe 7 zile
  • Temperatura apei
  • Hartă satelitară
  • Meteo pe hartă
  • Widget-uri
  • user-avatar
    Intrare

    Meteo pe oră la Orsha

    Astăzi, 23 Octombrie, Luni

    Timp Temperatura Precipitaţii Vânt Presiune Umiditate
    00:00 0°C° 0 mm 1 m/s 748 mmHg 75%
    01:00 0°C° 0 mm 1 m/s 748 mmHg 76%
    02:00 0°C° 0 mm 1 m/s 748 mmHg 77%
    03:00 0°C° 0 mm 1 m/s 748 mmHg 78%
    04:00 0°C° 0 mm 1 m/s 748 mmHg 79%
    05:00 -1°C° 0 mm 0 m/s 747 mmHg 80%
    06:00 -1°C° 0 mm 0 m/s 748 mmHg 78%
    07:00 +1°C° 0 mm 1 m/s 748 mmHg 76%
    08:00 +1°C° 0 mm 1 m/s 748 mmHg 74%
    09:00 +2°C° 0 mm 1 m/s 748 mmHg 69%
    10:00 +3°C° 0 mm 1 m/s 748 mmHg 64%
    11:00 +3°C° 0 mm 2 m/s 748 mmHg 60%
    12:00 +4°C° 0 mm 2 m/s 749 mmHg 58%
    13:00 +4°C° 0 mm 2 m/s 749 mmHg 57%
    14:00 +4°C° 0 mm 2 m/s 749 mmHg 55%
    15:00 +3°C° 0 mm 2 m/s 749 mmHg 61%
    16:00 +2°C° 0 mm 2 m/s 749 mmHg 66%
    17:00 -1°C° 0 mm 2 m/s 749 mmHg 71%
    18:00 -1°C° 0 mm 3 m/s 750 mmHg 72%
    19:00 -1°C° 0 mm 3 m/s 750 mmHg 74%
    20:00 -2°C° 0 mm 3 m/s 750 mmHg 75%
    21:00 -2°C° 0 mm 3 m/s 751 mmHg 76%
    22:00 -2°C° 0 mm 3 m/s 751 mmHg 77%
    23:00 -2°C° 0 mm 3 m/s 752 mmHg 77%

    Mâine, 24 Octombrie, Marţi

    Timp Temperatura Precipitaţii Vânt Presiune Umiditate
    00:00 -2°C° 0 mm 3 m/s 752 mmHg 77%
    01:00 -2°C° 0 mm 3 m/s 753 mmHg 77%
    02:00 -4°C° 0 mm 3 m/s 753 mmHg 77%
    03:00 -4°C° 0 mm 3 m/s 753 mmHg 76%
    04:00 -4°C° 0 mm 3 m/s 753 mmHg 76%
    05:00 -4°C° 0 mm 3 m/s 754 mmHg 76%
    06:00 -3°C° 0 mm 4 m/s 754 mmHg 74%
    07:00 -3°C° 0 mm 4 m/s 755 mmHg 72%
    08:00 -3°C° 0 mm 4 m/s 755 mmHg 70%
    09:00 -2°C° 0 mm 4 m/s 755 mmHg 65%
    10:00 -1°C° 0 mm 4 m/s 756 mmHg 61%
    11:00 0°C° 0 mm 4 m/s 756 mmHg 57%
    12:00 0°C° 0 mm 4 m/s 756 mmHg 55%
    13:00 +1°C° 0 mm 3 m/s 756 mmHg 54%
    14:00 +2°C° 0 mm 3 m/s 756 mmHg 53%
    15:00 +1°C° 0 mm 3 m/s 756 mmHg 58%
    16:00 -1°C° 0 mm 3 m/s 756 mmHg 63%
    17:00 -2°C° 0 mm 2 m/s 756 mmHg 68%
    18:00 -2°C° 0 mm 2 m/s 757 mmHg 70%
    19:00 -3°C° 0 mm 2 m/s 757 mmHg 72%
    20:00 -3°C° 0 mm 2 m/s 757 mmHg 73%
    21:00 -3°C° 0 mm 2 m/s 757 mmHg 74%
    22:00 -3°C° 0 mm 2 m/s 758 mmHg 75%
    23:00 -3°C° 0 mm 2 m/s 758 mmHg 76%

    Poimâine, 25 Octombrie, Miercuri

    Timp Temperatura Precipitaţii Vânt Presiune Umiditate
    00:00 -3°C° 0 mm 2 m/s 758 mmHg 77%
    01:00 -4°C° 0 mm 2 m/s 758 mmHg 77%
    02:00 -4°C° 0 mm 2 m/s 758 mmHg 78%
    03:00 -4°C° 0 mm 2 m/s 758 mmHg 79%
    04:00 -4°C° 0 mm 2 m/s 758 mmHg 80%
    05:00 -4°C° 0 mm 2 m/s 758 mmHg 80%
    06:00 -4°C° 0 mm 2 m/s 758 mmHg 79%
    07:00 -3°C° 0 mm 2 m/s 758 mmHg 78%
    08:00 -3°C° 0 mm 2 m/s 758 mmHg 77%
    09:00 -2°C° 0 mm 3 m/s 758 mmHg 71%
    10:00 0°C° 0 mm 3 m/s 758 mmHg 65%
    11:00 +1°C° 0 mm 3 m/s 758 mmHg 59%
    12:00 +1°C° 0 mm 3 m/s 757 mmHg 58%
    13:00 +2°C° 0 mm 3 m/s 757 mmHg 57%
    14:00 +2°C° 0 mm 3 m/s 757 mmHg 56%
    15:00 +1°C° 0 mm 3 m/s 756 mmHg 61%
    16:00 0°C° 0 mm 3 m/s 756 mmHg 67%
    17:00 -2°C° 0 mm 2 m/s 756 mmHg 73%
    18:00 -2°C° 0 mm 3 m/s 755 mmHg 74%
    19:00 -2°C° 0 mm 3 m/s 755 mmHg 75%
    20:00 -3°C° 0 mm 4 m/s 755 mmHg 75%
    21:00 -3°C° 0 mm 4 m/s 754 mmHg 74%
    22:00 -4°C° 0 mm 5 m/s 753 mmHg 73%
    23:00 -2°C° 0 mm 5 m/s 753 mmHg 72%

    26 Octombrie, Joi

    Timp Temperatura Precipitaţii Vânt Presiune Umiditate
    00:00 -2°C° 0,1 mm 5 m/s 752 mmHg 73%
    01:00 -3°C° 0,1 mm 6 m/s 752 mmHg 74%
    02:00 -3°C° 0,1 mm 6 m/s 751 mmHg 75%
    03:00 -3°C° 0,6 mm 6 m/s 751 mmHg 79%
    04:00 -3°C° 0,6 mm 6 m/s 750 mmHg 83%
    05:00 -2°C° 0,6 mm 6 m/s 749 mmHg 87%
    06:00 -2°C° 0,4 mm 6 m/s 748 mmHg 87%
    07:00 -2°C° 0,4 mm 6 m/s 748 mmHg 87%
    08:00 -1°C° 0,4 mm 5 m/s 748 mmHg 87%
    09:00 -1°C° 0,1 mm 5 m/s 747 mmHg 88%
    10:00 0°C° 0,1 mm 5 m/s 747 mmHg 88%
    11:00 0°C° 0,1 mm 5 m/s 746 mmHg 89%
    12:00 +1°C° 0,1 mm 5 m/s 746 mmHg 90%
    13:00 +1°C° 0,1 mm 4 m/s 745 mmHg 92%
    14:00 +1°C° 0,1 mm 4 m/s 745 mmHg 94%
    15:00 +1°C° 0,4 mm 4 m/s 744 mmHg 95%
    16:00 +3°C° 0,4 mm 4 m/s 743 mmHg 96%
    17:00 +3°C° 0,4 mm 4 m/s 743 mmHg 97%
    18:00 +3°C° 0,5 mm 4 m/s 742 mmHg 97%
    19:00 +4°C° 0,5 mm 4 m/s 742 mmHg 97%
    20:00 +4°C° 0,5 mm 4 m/s 741 mmHg 98%
    21:00 +4°C° 0,2 mm 4 m/s 741 mmHg 98%
    22:00 +4°C° 0,2 mm 4 m/s 740 mmHg 98%
    23:00 +4°C° 0,2 mm 3 m/s 740 mmHg 98%

    27 Octombrie, Vineri

    Timp Temperatura Precipitaţii Vânt Presiune Umiditate
    00:00 +4°C° 0,2 mm 3 m/s 740 mmHg 97%
    01:00 +4°C° 0,2 mm 3 m/s 739 mmHg 97%
    02:00 +4°C° 0,2 mm 3 m/s 739 mmHg 97%
    03:00 +4°C° 0,1 mm 3 m/s 739 mmHg 97%
    04:00 +4°C° 0,1 mm 3 m/s 738 mmHg 97%
    05:00 +4°C° 0,1 mm 3 m/s 738 mmHg 97%
    06:00 +4°C° 0 mm 3 m/s 738 mmHg 97%
    07:00 +4°C° 0 mm 3 m/s 737 mmHg 97%
    08:00 +5°C° 0 mm 3 m/s 737 mmHg 97%
    09:00 +5°C° 0 mm 3 m/s 737 mmHg 95%
    10:00 +5°C° 0 mm 3 m/s 737 mmHg 94%
    11:00 +7°C° 0 mm 3 m/s 737 mmHg 93%
    12:00 +7°C° 0,2 mm 3 m/s 736 mmHg 91%
    13:00 +7°C° 0,2 mm 3 m/s 736 mmHg 90%
    14:00 +8°C° 0,2 mm 3 m/s 735 mmHg 89%
    15:00 +7°C° 0,1 mm 2 m/s 735 mmHg 90%
    16:00 +6°C° 0,1 mm 2 m/s 734 mmHg 92%
    17:00 +5°C° 0,1 mm 2 m/s 734 mmHg 93%
    18:00 +5°C° 0 mm 2 m/s 734 mmHg 94%
    19:00 +5°C° 0 mm 2 m/s 733 mmHg 95%
    20:00 +4°C° 0 mm 2 m/s 733 mmHg 95%
    21:00 +4°C° 0 mm 2 m/s 733 mmHg 96%
    22:00 +4°C° 0 mm 2 m/s 733 mmHg 96%
    23:00 +4°C° 0 mm 2 m/s 732 mmHg 96%

    28 Octombrie, Sâmbătă

    Timp Temperatura Precipitaţii Vânt Presiune Umiditate
    00:00 +4°C° 0 mm 2 m/s 732 mmHg 97%
    01:00 +5°C° 0 mm 1 m/s 732 mmHg 97%
    02:00 +4°C° 0 mm 1 m/s 731 mmHg 97%
    03:00 +4°C° 0 mm 1 m/s 731 mmHg 97%
    04:00 +4°C° 0 mm 1 m/s 731 mmHg 97%
    05:00 +4°C° 0 mm 1 m/s 731 mmHg 97%
    06:00 +4°C° 0 mm 1 m/s 731 mmHg 97%
    07:00 +4°C° 0 mm 2 m/s 731 mmHg 97%
    08:00 +4°C° 0 mm 2 m/s 731 mmHg 97%
    09:00 +5°C° 0 mm 2 m/s 731 mmHg 94%
    10:00 +6°C° 0 mm 2 m/s 731 mmHg 92%
    11:00 +7°C° 0 mm 2 m/s 731 mmHg 89%
    12:00 +7°C° 0,2 mm 3 m/s 731 mmHg 89%
    13:00 +7°C° 0,2 mm 3 m/s 732 mmHg 89%
    14:00 +7°C° 0,2 mm 3 m/s 732 mmHg 89%
    15:00 +7°C° 0,4 mm 3 m/s 732 mmHg 91%
    16:00 +5°C° 0,4 mm 3 m/s 732 mmHg 93%
    17:00 +5°C° 0,4 mm 3 m/s 732 mmHg 95%
    18:00 +5°C° 0,1 mm 3 m/s 733 mmHg 95%
    19:00 +4°C° 0,1 mm 3 m/s 733 mmHg 95%
    20:00 +4°C° 0,1 mm 3 m/s 734 mmHg 94%
    21:00 +4°C° 0 mm 3 m/s 734 mmHg 94%
    22:00 +3°C° 0 mm 3 m/s 734 mmHg 94%
    23:00 +4°C° 0 mm 2 m/s 734 mmHg 94%

    29 Octombrie, Duminică

    Timp Temperatura Precipitaţii Vânt Presiune Umiditate
    00:00 +3°C° 0 mm 2 m/s 735 mmHg 94%
    01:00 +3°C° 0 mm 2 m/s 735 mmHg 94%
    02:00 +3°C° 0 mm 2 m/s 735 mmHg 94%
    03:00 +2°C° 0 mm 2 m/s 735 mmHg 94%
    04:00 +2°C° 0 mm 2 m/s 735 mmHg 95%
    05:00 +2°C° 0 mm 2 m/s 736 mmHg 95%
    06:00 +2°C° 0 mm 2 m/s 736 mmHg 95%
    07:00 +2°C° 0 mm 2 m/s 736 mmHg 95%
    08:00 +2°C° 0 mm 2 m/s 736 mmHg 96%
    09:00 +4°C° 0 mm 2 m/s 736 mmHg 92%
    10:00 +5°C° 0 mm 2 m/s 737 mmHg 88%
    11:00 +6°C° 0 mm 2 m/s 737 mmHg 85%
    12:00 +6°C° 0,2 mm 2 m/s 736 mmHg 85%
    13:00 +6°C° 0,2 mm 2 m/s 736 mmHg 85%
    14:00 +6°C° 0,2 mm 2 m/s 736 mmHg 84%
    15:00 +6°C° 0,1 mm 2 m/s 736 mmHg 87%
    16:00 +5°C° 0,1 mm 2 m/s 736 mmHg 89%
    17:00 +5°C° 0,1 mm 2 m/s 735 mmHg 91%
    18:00 +5°C° 0 mm 2 m/s 735 mmHg 91%
    19:00 +4°C° 0 mm 2 m/s 735 mmHg 91%
    20:00 +4°C° 0 mm 2 m/s 735 mmHg 91%
    21:00 +3°C° 0 mm 3 m/s 735 mmHg 91%
    22:00 +3°C° 0 mm 3 m/s 734 mmHg 92%
    23:00 +2°C° 0 mm 3 m/s 734 mmHg 92%
    Arată mai mult